Regional Weather Roundup
Issued by NWS Sioux Falls, SD

Home | Current Version | Previous Version | Text Only | Print | Product List | Glossary On
Versions: 1 2 3 4 5 6 7 8 9 10 11 12 13 14 15 16 17 18 19 20 21 22 23 24 25 26 27 28 29 30 31 32 33 34 35 36 37 38 39 40 41 42 43 44 45 46 47 48 49 50
000
ASUS43 KFSD 271310
RWRFSD

WEATHER ROUNDUP FOR SE SOUTH DAKOTA/SW MINNESOTA/NW IOWA
NATIONAL WEATHER SERVICE SIOUX FALLS SD
800 AM CDT MON APR 27 2015

NOTE: "FAIR" INDICATES FEW OR NO CLOUDS BELOW 12,000 FEET WITH NO
SIGNIFICANT WEATHER AND OR OBSTRUCTIONS TO VISIBILITY.


SDZ038>040-050-052>070-271400-
SOUTHEAST SOUTH DAKOTA

CITY           SKY/WX    TMP DP  RH WIND       PRES   REMARKS
BROOKINGS      SUNNY     36  28  75 CALM      30.24R
CHAMBERLAIN    SUNNY     39  36  88 CALM      30.22R
HURON          SUNNY     40  29  64 CALM      30.22R
MADISON        FAIR      37  27  65 E6        30.23R
MITCHELL       SUNNY     41  34  76 CALM      30.23R
SIOUX FALLS    MOSUNNY   42  32  67 NE5       30.23R
WINNER         FAIR      43  29  57 SW5       30.22R
YANKTON        MOSUNNY   39  30  70 CALM      30.21R
$$

MNZ071-072-080-081-089-090-097-098-271400-
SOUTHWEST MINNESOTA

CITY           SKY/WX    TMP DP  RH WIND       PRES   REMARKS
FAIRMONT       SUNNY     43  28  56 N6        30.22R
JACKSON        SUNNY     43  28  56 CALM      30.22S
LUVERNE        SUNNY     43  28  56 CALM      30.24R
MARSHALL       FAIR      41  25  52 NW3       30.23R
MONTEVIDEO     FAIR      43  28  56 CALM      30.25R
PIPESTONE      SUNNY     45  25  45 E3        30.22R
REDWOOD FALLS  SUNNY     45  26  47 CALM      30.23R
WORTHINGTON    SUNNY     41  27  56 CALM      30.23S
$$

IAZ001>003-012>014-020>022-031-032-NEZ013-014-SDZ071-271400-
NORTHWEST IOWA

CITY           SKY/WX    TMP DP  RH WIND       PRES   REMARKS
CHEROKEE       SUNNY     38  35  89 CALM      30.23R
DENISON        MOSUNNY   39  39 100 NE5       30.18R
ESTHERVILLE    SUNNY     41  28  60 N5        30.21R
LE MARS        SUNNY     39  34  81 CALM      30.24R
ORANGE CITY    SUNNY     43  28  56 E7        30.22R
SHELDON        SUNNY     41  30  65 CALM      30.22R
SIOUX CITY     MOSUNNY   44  34  67 N3        30.21R
SPENCER        SUNNY     42  32  67 N5        30.22R
STORM LAKE     SUNNY     45  34  65 N6        30.22R
$$

ABBREVIATIONS USED IN REMARKS
   TC - TEMPERATURE IN CELSIUS
  WCI - WIND CHILL INDEX
   HX - HEAT INDEX
  VSB - VISIBILITY



USA.gov is the U.S. government's official web portal to all federal, state and local government web resources and services.